BAW795 LJLJ-EGLL

Flight info

Callsign BAW795
Flight time N/A
Altitude 38000
Route GIMIX1Z/30 GIMIX DCT INGID DCT SIMBA DCT MAMOR DCT INBED DCT BOMBI DCT ADKUV DCT LENDO DCT SOGRI DCT DENUT L608 LOGAN LOGAN2H
Aircraft A320/M-SDE3FGHIRWXY/S

Departure

Time N/A
Airport Ljubljana Jože Pučnik Airport (LJLJ)

Arrival

Time 2026-05-03 20:41
Airport London Heathrow Airport (EGLL)
Time Latitude Longitude Altitude Speed Heading
2026-05-03 20:15 51.45063 2.92082 37957 ft 438 kts 287°
2026-05-03 20:15 51.47203 2.82918 37955 ft 438 kts 286°
2026-05-03 20:16 51.49332 2.73742 37944 ft 439 kts 286°
2026-05-03 20:16 51.51457 2.64559 37559 ft 438 kts 286°
2026-05-03 20:16 51.52512 2.59974 37286 ft 437 kts 286°
2026-05-03 20:17 51.53563 2.55392 37026 ft 437 kts 286°
2026-05-03 20:17 51.54616 2.50797 36764 ft 437 kts 286°
2026-05-03 20:17 51.55651 2.46278 36511 ft 437 kts 286°
2026-05-03 20:17 51.56702 2.41693 36255 ft 437 kts 286°
2026-05-03 20:18 51.57751 2.37111 35693 ft 438 kts 285°
2026-05-03 20:18 51.58804 2.32484 34905 ft 441 kts 285°
2026-05-03 20:18 51.59859 2.27837 34091 ft 444 kts 285°
2026-05-03 20:18 51.60921 2.23151 33102 ft 448 kts 285°
2026-05-03 20:19 51.61988 2.18438 32212 ft 449 kts 285°
2026-05-03 20:19 51.63056 2.13714 31406 ft 448 kts 285°
2026-05-03 20:19 51.64113 2.09043 30936 ft 440 kts 285°
2026-05-03 20:19 51.65159 2.04422 30348 ft 436 kts 284°
2026-05-03 20:20 51.66189 1.99853 29737 ft 433 kts 284°
2026-05-03 20:20 51.67208 1.95317 29151 ft 427 kts 284°
2026-05-03 20:20 51.68205 1.90866 28577 ft 422 kts 284°
2026-05-03 20:20 51.69194 1.86431 28024 ft 416 kts 284°
2026-05-03 20:21 51.70164 1.82058 27461 ft 412 kts 285°
2026-05-03 20:21 51.71120 1.77739 26931 ft 408 kts 285°
2026-05-03 20:21 51.72065 1.73454 26390 ft 403 kts 285°
2026-05-03 20:21 51.72999 1.69203 25869 ft 400 kts 285°
2026-05-03 20:22 51.73885 1.65029 25360 ft 394 kts 282°
2026-05-03 20:22 51.74400 1.60739 24864 ft 386 kts 272°
2026-05-03 20:22 51.74446 1.56435 24275 ft 383 kts 263°
2026-05-03 20:22 51.74172 1.52164 23704 ft 382 kts 261°
2026-05-03 20:23 51.73895 1.47917 23074 ft 382 kts 262°
2026-05-03 20:23 51.73622 1.43659 22497 ft 379 kts 262°
2026-05-03 20:23 51.73353 1.39436 21925 ft 378 kts 262°
2026-05-03 20:23 51.73082 1.35231 21362 ft 377 kts 262°
2026-05-03 20:24 51.72808 1.31027 20798 ft 376 kts 262°
2026-05-03 20:24 51.72531 1.26830 20226 ft 375 kts 262°
2026-05-03 20:24 51.72348 1.24073 19861 ft 375 kts 262°
2026-05-03 20:24 51.72068 1.19892 19297 ft 374 kts 262°
2026-05-03 20:25 51.71787 1.15710 18736 ft 373 kts 262°
2026-05-03 20:25 51.71508 1.11556 18166 ft 372 kts 262°
2026-05-03 20:25 51.71137 1.06070 17380 ft 369 kts 262°
2026-05-03 20:25 51.70857 1.01985 16833 ft 366 kts 262°
2026-05-03 20:26 51.70668 0.99226 16458 ft 363 kts 262°
2026-05-03 20:26 51.70395 0.95210 15997 ft 357 kts 262°
2026-05-03 20:26 51.70129 0.91294 15873 ft 343 kts 262°
2026-05-03 20:26 51.69869 0.87504 15917 ft 340 kts 262°
2026-05-03 20:27 51.69606 0.83731 15735 ft 337 kts 262°
2026-05-03 20:27 51.69342 0.79992 15236 ft 335 kts 262°
2026-05-03 20:27 51.69075 0.76286 14763 ft 333 kts 262°
2026-05-03 20:27 51.68812 0.72626 14303 ft 331 kts 262°
2026-05-03 20:28 51.68547 0.68948 13847 ft 329 kts 262°
2026-05-03 20:28 51.68286 0.65306 13355 ft 327 kts 262°
2026-05-03 20:28 51.68027 0.61676 12849 ft 325 kts 262°
2026-05-03 20:28 51.67770 0.58098 12617 ft 315 kts 262°
2026-05-03 20:29 51.67523 0.54667 12475 ft 300 kts 262°
2026-05-03 20:29 51.67287 0.51392 12020 ft 289 kts 262°
2026-05-03 20:29 51.67055 0.48205 11408 ft 286 kts 262°
2026-05-03 20:29 51.66823 0.45028 10781 ft 284 kts 262°
2026-05-03 20:30 51.66592 0.41899 10176 ft 283 kts 262°
2026-05-03 20:30 51.66358 0.38739 9836 ft 283 kts 262°
2026-05-03 20:30 51.66125 0.35599 9486 ft 281 kts 262°
2026-05-03 20:30 51.65893 0.32486 9137 ft 280 kts 262°
2026-05-03 20:31 51.65664 0.29375 8767 ft 279 kts 262°
2026-05-03 20:31 51.65434 0.26281 8427 ft 278 kts 262°
2026-05-03 20:31 51.65201 0.23203 8128 ft 275 kts 262°
2026-05-03 20:31 51.64974 0.20203 8009 ft 265 kts 262°
2026-05-03 20:32 51.64755 0.17302 7865 ft 257 kts 262°
2026-05-03 20:32 51.64616 0.14510 7748 ft 249 kts 271°
2026-05-03 20:32 51.64722 0.11726 7551 ft 244 kts 272°
2026-05-03 20:32 51.64824 0.09037 7283 ft 243 kts 272°
2026-05-03 20:33 51.64924 0.06341 7007 ft 241 kts 272°
2026-05-03 20:33 51.65023 0.03645 6912 ft 241 kts 272°
2026-05-03 20:33 51.65121 0.00949 6913 ft 242 kts 272°
2026-05-03 20:33 51.65220 -0.01745 6747 ft 241 kts 272°
2026-05-03 20:34 51.65318 -0.04436 6513 ft 236 kts 272°
2026-05-03 20:34 51.65410 -0.07027 6393 ft 227 kts 272°
2026-05-03 20:34 51.65344 -0.09467 6224 ft 218 kts 253°
2026-05-03 20:34 51.64653 -0.11627 5928 ft 214 kts 226°
2026-05-03 20:35 51.63460 -0.13005 5598 ft 212 kts 200°
2026-05-03 20:35 51.62021 -0.13491 5268 ft 212 kts 188°
2026-05-03 20:35 51.60572 -0.13813 4952 ft 212 kts 188°
2026-05-03 20:35 51.59125 -0.14136 4649 ft 211 kts 188°
2026-05-03 20:36 51.57682 -0.14461 4268 ft 215 kts 188°
2026-05-03 20:36 51.56182 -0.14798 3848 ft 220 kts 188°
2026-05-03 20:36 51.54666 -0.15140 3524 ft 220 kts 188°
2026-05-03 20:36 51.53194 -0.15475 3384 ft 212 kts 188°
2026-05-03 20:37 51.51763 -0.15800 3253 ft 204 kts 188°
2026-05-03 20:37 51.50390 -0.16243 3136 ft 195 kts 201°
2026-05-03 20:37 51.49237 -0.17287 3044 ft 191 kts 220°
2026-05-03 20:37 51.48377 -0.18853 2976 ft 184 kts 239°
2026-05-03 20:38 51.47893 -0.20729 2829 ft 176 kts 258°
2026-05-03 20:38 51.47801 -0.22617 2691 ft 171 kts 270°
2026-05-03 20:38 51.47800 -0.24524 2439 ft 171 kts 270°
2026-05-03 20:38 51.47798 -0.26423 2194 ft 169 kts 270°
2026-05-03 20:39 51.47796 -0.28297 1964 ft 167 kts 270°
2026-05-03 20:39 51.47794 -0.30137 1743 ft 165 kts 270°
2026-05-03 20:39 51.47791 -0.31969 1520 ft 163 kts 270°
2026-05-03 20:39 51.47787 -0.33787 1308 ft 161 kts 270°
2026-05-03 20:40 51.47784 -0.35560 1088 ft 154 kts 269°
2026-05-03 20:40 51.47781 -0.37186 894 ft 141 kts 269°
2026-05-03 20:40 51.47777 -0.38729 704 ft 136 kts 269°
2026-05-03 20:40 51.47773 -0.40248 519 ft 135 kts 269°
2026-05-03 20:41 51.47766 -0.41751 340 ft 134 kts 269°
2026-05-03 20:41 51.47766 -0.43245 168 ft 135 kts 269°
2026-05-03 20:41 51.47761 -0.44657 89 ft 100 kts 271°
2026-05-03 20:41 51.47759 -0.45331 87 ft 35 kts 268°
2026-05-03 20:42 51.47677 -0.45464 86 ft 18 kts 185°
2026-05-03 20:42 51.47600 -0.45495 89 ft 11 kts 233°
2026-05-03 20:42 51.47594 -0.45613 87 ft 11 kts 270°
2026-05-03 20:42 51.47594 -0.45750 87 ft 14 kts 270°
2026-05-03 20:43 51.47593 -0.45918 87 ft 15 kts 270°
2026-05-03 20:43 51.47591 -0.46051 87 ft 12 kts 255°
2026-05-03 20:43 51.47529 -0.46094 87 ft 7 kts 208°
2026-05-03 20:43 51.47518 -0.46140 87 ft 5 kts 253°
2026-05-03 20:44 51.47506 -0.46193 89 ft 6 kts 220°
2026-05-03 20:44 51.47462 -0.46173 90 ft 7 kts 146°
2026-05-03 20:44 51.47431 -0.46157 87 ft 5 kts 192°
2026-05-03 20:44 51.47409 -0.46210 88 ft 7 kts 237°
2026-05-03 20:45 51.47392 -0.46249 90 ft 2 kts 236°
2026-05-03 20:45 51.47390 -0.46254 90 ft 0 kts 236°